NKS67 TJSJ-TNCM

Flight info

Callsign NKS67
Flight time N/A
Altitude 19000
Route JETSS1 SLUGO DCT PJM
Aircraft A321/M-SDE3FGHIRWY/LB1

Departure

Time 2026-04-27 19:45
Airport Luis Munoz Marin International Airport (TJSJ)

Arrival

Time N/A
Airport Princess Juliana International Airport (TNCM)
Time Latitude Longitude Altitude Speed Heading
2026-04-27 19:28 18.43623 -66.00280 17 ft 0 kts 344°
2026-04-27 19:37 18.43606 -66.00275 19 ft 4 kts 338°
2026-04-27 19:37 18.43582 -66.00262 21 ft 4 kts 323°
2026-04-27 19:37 18.43562 -66.00243 17 ft 4 kts 305°
2026-04-27 19:37 18.43550 -66.00218 20 ft 4 kts 281°
2026-04-27 19:38 18.43548 -66.00206 20 ft 0 kts 271°
2026-04-27 19:40 18.43548 -66.00207 17 ft 0 kts 269°
2026-04-27 19:40 18.43522 -66.00227 17 ft 11 kts 193°
2026-04-27 19:40 18.43467 -66.00279 17 ft 11 kts 253°
2026-04-27 19:40 18.43465 -66.00360 17 ft 12 kts 271°
2026-04-27 19:41 18.43466 -66.00465 17 ft 19 kts 268°
2026-04-27 19:41 18.43465 -66.00633 17 ft 27 kts 270°
2026-04-27 19:41 18.43466 -66.00855 17 ft 34 kts 270°
2026-04-27 19:41 18.43468 -66.01115 17 ft 31 kts 270°
2026-04-27 19:42 18.43467 -66.01340 17 ft 30 kts 270°
2026-04-27 19:42 18.43519 -66.01435 17 ft 14 kts 349°
2026-04-27 19:42 18.43617 -66.01436 17 ft 14 kts
2026-04-27 19:42 18.43713 -66.01438 17 ft 14 kts 353°
2026-04-27 19:43 18.43751 -66.01509 17 ft 11 kts 283°
2026-04-27 19:43 18.43802 -66.01562 18 ft 10 kts 342°
2026-04-27 19:43 18.43857 -66.01531 19 ft 9 kts 57°
2026-04-27 19:43 18.43886 -66.01465 17 ft 18 kts 67°
2026-04-27 19:44 18.44027 -66.01105 17 ft 88 kts 68°
2026-04-27 19:44 18.44349 -66.00316 18 ft 144 kts 66°
2026-04-27 19:44 18.44796 -65.99205 99 ft 180 kts 69°
2026-04-27 19:44 18.45357 -65.97953 475 ft 196 kts 58°
2026-04-27 19:45 18.46278 -65.96891 1229 ft 198 kts 44°
2026-04-27 19:45 18.47343 -65.95899 1627 ft 214 kts 44°
2026-04-27 19:45 18.48486 -65.94762 1835 ft 237 kts 56°
2026-04-27 19:45 18.49211 -65.93145 2128 ft 254 kts 73°
2026-04-27 19:46 18.49782 -65.91354 2728 ft 261 kts 74°
2026-04-27 19:46 18.50361 -65.89523 3422 ft 265 kts 74°
2026-04-27 19:46 18.50950 -65.87673 4105 ft 267 kts 73°
2026-04-27 19:46 18.51549 -65.85803 4751 ft 272 kts 72°
2026-04-27 19:47 18.52159 -65.83905 4946 ft 274 kts 72°
2026-04-27 19:47 18.52764 -65.82028 4990 ft 274 kts 72°
2026-04-27 19:47 18.53378 -65.80124 4995 ft 274 kts 72°
2026-04-27 19:47 18.53998 -65.78210 5376 ft 277 kts 72°
2026-04-27 19:48 18.54624 -65.76277 6108 ft 279 kts 72°
2026-04-27 19:48 18.55254 -65.74327 6782 ft 283 kts 73°
2026-04-27 19:48 18.55892 -65.72348 7403 ft 287 kts 73°
2026-04-27 19:48 18.56535 -65.70346 8011 ft 290 kts 72°
2026-04-27 19:49 18.57184 -65.68320 8650 ft 293 kts 73°
2026-04-27 19:49 18.57842 -65.66267 9278 ft 297 kts 73°
2026-04-27 19:49 18.58507 -65.64192 9896 ft 300 kts 73°
2026-04-27 19:49 18.59184 -65.62074 10240 ft 315 kts 73°
2026-04-27 19:50 18.59897 -65.59841 10374 ft 336 kts 72°
2026-04-27 19:50 18.60666 -65.57440 10528 ft 354 kts 73°
2026-04-27 19:50 18.61464 -65.54949 10948 ft 361 kts 72°
2026-04-27 19:50 18.62271 -65.52427 11510 ft 365 kts 72°
2026-04-27 19:51 18.63092 -65.49870 12169 ft 370 kts 72°
2026-04-27 19:51 18.63921 -65.47292 12733 ft 374 kts 72°
2026-04-27 19:51 18.64761 -65.44682 13251 ft 378 kts 72°
2026-04-27 19:51 18.65608 -65.42041 13768 ft 382 kts 72°
2026-04-27 19:52 18.66440 -65.39365 14233 ft 385 kts 76°
2026-04-27 19:52 18.66802 -65.37530 14530 ft 387 kts 83°
2026-04-27 19:52 18.66856 -65.33761 15142 ft 389 kts 98°
2026-04-27 19:52 18.66419 -65.30937 15594 ft 392 kts 102°
2026-04-27 19:53 18.65479 -65.25217 16528 ft 399 kts 102°
2026-04-27 19:53 18.65008 -65.22317 16983 ft 403 kts 102°
2026-04-27 19:53 18.64533 -65.19394 17438 ft 406 kts 102°
2026-04-27 19:54 18.64053 -65.16446 17891 ft 410 kts 102°
2026-04-27 19:54 18.63567 -65.13464 18337 ft 414 kts 102°
2026-04-27 19:54 18.63074 -65.10465 18730 ft 417 kts 102°
2026-04-27 19:54 18.62578 -65.07440 18964 ft 419 kts 102°
2026-04-27 19:55 18.62083 -65.04410 19027 ft 420 kts 102°
2026-04-27 19:55 18.61593 -65.01406 19037 ft 421 kts 102°
2026-04-27 19:55 18.61096 -64.98366 19036 ft 421 kts 102°
2026-04-27 19:55 18.60596 -64.95323 19032 ft 421 kts 102°
2026-04-27 19:56 18.60093 -64.92279 19036 ft 421 kts 102°
2026-04-27 19:56 18.59592 -64.89239 19035 ft 421 kts 102°
2026-04-27 19:56 18.59089 -64.86198 19032 ft 421 kts 102°
2026-04-27 19:56 18.58587 -64.83163 19031 ft 421 kts 102°
2026-04-27 19:57 18.58083 -64.80123 19031 ft 421 kts 102°
2026-04-27 19:57 18.57580 -64.77087 19031 ft 421 kts 102°
2026-04-27 19:57 18.57076 -64.74049 19030 ft 421 kts 102°
2026-04-27 19:57 18.56569 -64.71012 19030 ft 421 kts 102°
2026-04-27 19:58 18.56061 -64.67967 19041 ft 421 kts 102°
2026-04-27 19:58 18.55555 -64.64930 19044 ft 421 kts 102°
2026-04-27 19:58 18.55049 -64.61886 19046 ft 421 kts 102°
2026-04-27 19:58 18.54544 -64.58840 19050 ft 421 kts 102°
2026-04-27 19:59 18.54047 -64.55839 19053 ft 421 kts 102°
2026-04-27 19:59 18.53541 -64.52795 19054 ft 421 kts 102°
2026-04-27 19:59 18.53033 -64.49755 19052 ft 421 kts 102°
2026-04-27 19:59 18.52521 -64.46712 19053 ft 421 kts 102°
2026-04-27 20:00 18.52010 -64.43673 19049 ft 421 kts 102°
2026-04-27 20:00 18.51500 -64.40635 19048 ft 421 kts 102°
2026-04-27 20:00 18.51163 -64.38624 19045 ft 421 kts 102°
2026-04-27 20:00 18.50481 -64.34560 19046 ft 421 kts 102°
2026-04-27 20:01 18.50143 -64.32549 19048 ft 421 kts 102°
2026-04-27 20:01 18.49632 -64.29505 19047 ft 421 kts 102°
2026-04-27 20:01 18.49122 -64.26466 19046 ft 421 kts 102°
2026-04-27 20:01 18.48610 -64.23423 19041 ft 421 kts 102°
2026-04-27 20:02 18.48098 -64.20376 19044 ft 422 kts 102°
2026-04-27 20:02 18.47587 -64.17336 19043 ft 421 kts 102°
2026-04-27 20:02 18.47079 -64.14328 18854 ft 413 kts 102°
2026-04-27 20:02 18.46582 -64.11386 18631 ft 403 kts 102°
2026-04-27 20:03 18.46095 -64.08516 18407 ft 393 kts 102°
2026-04-27 20:03 18.45618 -64.05716 18168 ft 384 kts 102°
2026-04-27 20:03 18.45145 -64.02960 17905 ft 380 kts 102°
2026-04-27 20:03 18.44684 -64.00268 17643 ft 378 kts 102°
2026-04-27 20:04 18.44219 -63.97552 17393 ft 376 kts 102°
2026-04-27 20:04 18.43759 -63.94853 17154 ft 374 kts 102°
2026-04-27 20:04 18.43306 -63.92166 16900 ft 372 kts 102°
2026-04-27 20:04 18.42856 -63.89491 16647 ft 370 kts 102°
2026-04-27 20:05 18.42406 -63.86838 16408 ft 368 kts 102°
2026-04-27 20:05 18.41957 -63.84210 15889 ft 359 kts 102°
2026-04-27 20:05 18.41516 -63.81638 15045 ft 354 kts 102°
2026-04-27 20:05 18.41080 -63.79109 14247 ft 348 kts 102°
2026-04-27 20:06 18.40652 -63.76620 13430 ft 342 kts 102°
2026-04-27 20:06 18.40232 -63.74172 12561 ft 337 kts 102°
2026-04-27 20:06 18.39819 -63.71765 11721 ft 331 kts 101°
2026-04-27 20:06 18.39413 -63.69403 11230 ft 327 kts 103°
2026-04-27 20:07 18.38802 -63.67091 11074 ft 328 kts 112°
2026-04-27 20:07 18.37817 -63.64944 11028 ft 325 kts 123°
2026-04-27 20:07 18.36571 -63.62965 11036 ft 324 kts 126°
2026-04-27 20:07 18.35322 -63.61017 11039 ft 325 kts 126°
2026-04-27 20:08 18.34066 -63.59032 11033 ft 325 kts 122°
2026-04-27 20:08 18.33246 -63.56810 11036 ft 328 kts 103°
2026-04-27 20:08 18.32825 -63.54384 11036 ft 328 kts 101°
2026-04-27 20:08 18.32649 -63.51982 11041 ft 330 kts 91°
2026-04-27 20:09 18.32677 -63.49565 11045 ft 330 kts 90°
2026-04-27 20:09 18.32713 -63.47147 11041 ft 330 kts 91°
2026-04-27 20:09 18.32751 -63.44730 11043 ft 330 kts 90°
2026-04-27 20:09 18.32798 -63.42310 11042 ft 331 kts 91°